Lake Sakakawea Weather Center

Moon Phase Calendar



Lake Sakakawea Water Level
Online Cameras

 


      

Current Conditions in Garrison
3/8/2021 3:50:11 AM

23°F
Feels Like 14
Clear
Humidity
93%
Pressure
30.15"
Wind
7.2 mph (S)
Dew Point
21°F
UV Index
0/10 (Low)
Visibility
6 mi

Hourly Forecast

Date & Time Mon, Mar 8
3:00 AM
Mon, Mar 8
4:00 AM
Mon, Mar 8
5:00 AM
Mon, Mar 8
6:00 AM
Mon, Mar 8
7:00 AM
Mon, Mar 8
8:00 AM
Mon, Mar 8
9:00 AM
Mon, Mar 8
10:00 AM
Mon, Mar 8
11:00 AM
Mon, Mar 8
12:00 PM
Mon, Mar 8
1:00 PM
Mon, Mar 8
2:00 PM
Mon, Mar 8
3:00 PM
Mon, Mar 8
4:00 PM
Mon, Mar 8
5:00 PM
Mon, Mar 8
6:00 PM
Mon, Mar 8
7:00 PM
Mon, Mar 8
8:00 PM
Mon, Mar 8
9:00 PM
Mon, Mar 8
10:00 PM
Mon, Mar 8
11:00 PM
Tue, Mar 9
12:00 AM
Tue, Mar 9
1:00 AM
Tue, Mar 9
2:00 AM
Tue, Mar 9
3:00 AM
Tue, Mar 9
4:00 AM
Tue, Mar 9
5:00 AM
Tue, Mar 9
6:00 AM
Tue, Mar 9
7:00 AM
Tue, Mar 9
8:00 AM
Tue, Mar 9
9:00 AM
Tue, Mar 9
10:00 AM
Tue, Mar 9
11:00 AM
Tue, Mar 9
12:00 PM
Tue, Mar 9
1:00 PM
Tue, Mar 9
2:00 PM
Tue, Mar 9
3:00 PM
Tue, Mar 9
4:00 PM
Tue, Mar 9
5:00 PM
Tue, Mar 9
6:00 PM
Tue, Mar 9
7:00 PM
Tue, Mar 9
8:00 PM
Tue, Mar 9
9:00 PM
Tue, Mar 9
10:00 PM
Tue, Mar 9
11:00 PM
Wed, Mar 10
12:00 AM
Wed, Mar 10
1:00 AM
Wed, Mar 10
2:00 AM
Condition
Clear

Clouds

Clouds

Clouds

Clear

Clouds

Clouds

Clouds

Clouds

Clouds

Clouds

Clouds

Clouds

Clouds

Clouds

Clouds

Clouds

Clouds

Clouds

Clouds

Clouds

Clouds

Clouds

Clouds

Clouds

Clouds

Clouds

Clouds

Clouds

Clouds

Clouds

Clouds

Clouds

Clouds

Clouds

Clouds

Clouds

Clouds

Clouds

Clouds

Clouds

Clouds

Clouds

Clouds

Clouds

Clouds

Clouds

Clouds
Temperature 23°F30°F33°F35°F36°F36°F40°F43°F47°F50°F51°F52°F54°F55°F53°F51°F48°F47°F46°F45°F44°F44°F42°F41°F41°F39°F39°F39°F38°F38°F39°F39°F39°F41°F39°F41°F40°F40°F40°F39°F38°F36°F34°F32°F31°F30°F29°F28°F
Feels Like 14°F21°F25°F27°F28°F29°F32°F35°F37°F39°F41°F42°F44°F43°F42°F42°F40°F38°F37°F36°F35°F35°F34°F33°F32°F32°F32°F32°F32°F33°F32°F30°F27°F26°F24°F25°F23°F24°F25°F25°F26°F25°F23°F21°F20°F18°F18°F18°F
Cloudiness 1%29%39%40%0%26%32%27%34%40%30%18%13%16%32%42%87%94%95%96%97%98%75%83%88%91%93%94%100%87%91%93%95%95%100%100%100%100%100%100%100%97%80%60%49%51%99%100%
Visibility 6 mi6 mi6 mi6 mi6 mi6 mi6 mi6 mi6 mi6 mi6 mi6 mi6 mi6 mi6 mi6 mi6 mi6 mi6 mi6 mi6 mi6 mi6 mi6 mi6 mi6 mi6 mi6 mi6 mi6 mi6 mi6 mi6 mi6 mi6 mi6 mi6 mi6 mi6 mi6 mi6 mi6 mi6 mi6 mi6 mi6 mi6 mi6 mi
Precipitation 0%0%0%0%0%0%0%0%0%0%0%0%0%0%0%0%0%0%0%0%0%0%0%0%0%0%0%0%0%0%0%0%10%12%21%24%18%8%8%5%0%0%0%0%0%0%0%0%
Humidity 93%84%81%79%80%78%69%60%53%47%44%43%41%41%43%47%53%55%60%64%67%71%75%79%83%89%93%94%96%97%93%89%85%80%79%70%70%70%69%71%74%79%86%92%94%94%93%93%
Dew Point 21°F26°F29°F30°F30°F25°F26°F26°F26°F26°F26°F28°F29°F30°F30°F31°F31°F32°F33°F34°F34°F35°F35°F36°F36°F37°F37°F37°F37°F37°F37°F36°F35°F35°F34°F31°F30°F28°F27°F27°F26°F26°F25°F25°F25°F24°F22°F22°F
Pressure 30.15"30.15"30.12"30.12"30.12"30.12"30.12"30.09"30.06"30.03"30"29.94"29.91"29.91"29.88"29.88"29.88"29.85"29.83"29.8"29.77"29.74"29.71"29.68"29.65"29.62"29.59"29.59"29.59"29.59"29.59"29.62"29.65"29.68"29.68"29.71"29.74"29.8"29.8"29.83"29.85"29.88"29.88"29.91"29.91"29.94"29.94"29.97"
Wind Speed 7.7 mph7.2 mph6.9 mph6.8 mph6.5 mph6.5 mph7.3 mph9.1 mph9.4 mph11.4 mph11.6 mph11.6 mph12.1 mph13.6 mph12.8 mph8.6 mph8.7 mph10.2 mph10.3 mph10.6 mph10.8 mph10.6 mph10.2 mph10.1 mph9 mph8.5 mph8 mph7 mph5.6 mph2.9 mph8.5 mph11.5 mph16.5 mph20 mph20.9 mph21.9 mph22.9 mph20.4 mph19.3 mph18.8 mph14.9 mph13.1 mph13.2 mph13 mph12.2 mph12.7 mph12.6 mph10.5 mph
Wind
Direction
176°
S
178°
S
182°
S
181°
S
180°
S
174°
S
168°
SSE
174°
S
171°
S
167°
SSE
162°
SSE
154°
SSE
147°
SSE
151°
SSE
150°
SSE
135°
SE
109°
ESE
109°
ESE
116°
ESE
117°
ESE
112°
ESE
107°
ESE
107°
ESE
95°
E
95°
E
85°
E
81°
E
77°
ENE
63°
ENE
328°
NNW
324°
NW
303°
WNW
298°
WNW
287°
WNW
285°
WNW
279°
W
278°
W
281°
W
285°
WNW
290°
WNW
295°
WNW
299°
WNW
303°
WNW
305°
NW
311°
NW
316°
NW
320°
NW
318°
NW

Daily Forecast

Date High Low Precip. Humidity
Today
Mar 8

Clouds
55 °F
23 °F
0%
47%
Tuesday
Mar 9

Clouds
44 °F
34 °F
24%
80%
Wednesday
Mar 10

Clouds
34 °F
26 °F
0%
86%
Thursday
Mar 11

Clouds
33 °F
25 °F
0%
85%
Friday
Mar 12

Clear
42 °F
21 °F
0%
74%
Saturday
Mar 13

Clear
37 °F
24 °F
0%
76%
Sunday
Mar 14

Clear
45 °F
27 °F
0%
58%
Monday
Mar 15

Clouds
40 °F
30 °F
0%
71%
Tuesday
Mar 16

Snow
32 °F
24 °F
88%
87%
Wednesday
Mar 17

Clouds
35 °F
23 °F
0%
79%
Thursday
Mar 18

Clouds
27 °F
15 °F
0%
75%
Friday
Mar 19

Clouds
33 °F
22 °F
1%
84%
Saturday
Mar 20

Clear
44 °F
21 °F
0%
73%
Sunday
Mar 21

Clouds
59 °F
36 °F
3%
44%
Monday
Mar 22

Clouds
54 °F
44 °F
0%
43%
Tuesday
Mar 23

Clouds
58 °F
41 °F
0%
48%


Temperature 8-14 Day Outlook



Precipitation 8-14 Day Outlook




Quick Links
Lake Sakakawea News
Lake Sakakawea Photos
Lake Sakakawea Videos




About Us
Contact Us
Site Map
Search Site
Advertise With Us
   
Sakakawea.USLakes.info
THE LAKE SAKAKAWEA WEBSITE

Copyright 2021, Lakes Online
Privacy    |    Legal